AO-07 1 07530U 74089B 23234.98063118 -.00000037 00000-0 55257-4 0 9992 2 07530 101.9525 222.1196 0011904 297.3579 130.0957 12.53666250231782 UO-11 1 14781U 84021B 23235.50544067 .00001708 00000-0 20539-3 0 9990 2 14781 97.6634 209.8579 0007754 353.0103 7.1003 14.85155612125137 AO-16 1 20439U 90005D 23234.98610705 .00000228 00000-0 10013-3 0 9992 2 20439 98.8878 226.9431 0011006 14.2550 45.9880 14.33146594754729 LO-19 1 20442U 90005G 23234.90889861 .00000248 00000-0 10685-3 0 9996 2 20442 98.8497 212.8688 0011481 348.9513 11.1416 14.33300585754969 AO-27 1 22825U 93061C 23235.08396116 .00000127 00000-0 66715-4 0 9996 2 22825 98.8361 279.0363 0007619 227.6470 132.4067 14.30335470560124 IO-26 1 22826U 93061D 23235.07044731 .00000150 00000-0 74831-4 0 9993 2 22826 98.8307 278.8847 0008375 212.5199 147.5468 14.30699833560375 FO-29 1 24278U 96046B 23236.73262837 .00000003 00000-0 41400-4 0 9998 2 24278 98.5349 205.9682 0349261 239.0249 117.6143 13.53152356334455 NOAA-15 1 25338U 98030A 23236.76220231 .00000230 00000-0 11348-3 0 9995 2 25338 98.6029 264.6363 0011505 111.9259 248.3146 14.26377150315033 GO-32 1 25397U 98043D 23236.87387879 .00000129 00000-0 75979-4 0 9996 2 25397 98.8742 194.9411 0000659 356.9344 3.1830 14.23901108305326 ISS 1 25544U 98067A 23236.81001213 .00044414 00000-0 79020-3 0 9990 2 25544 51.6476 348.5895 0004029 354.3644 142.6993 15.49692596412431 NO-44 1 26931U 01043C 23236.76731184 .00000262 00000-0 13099-3 0 9997 2 26931 67.0525 19.7388 0007648 261.9263 98.0970 14.30967900143558 SO-50 1 27607U 02058C 23236.66703391 .00001658 00000-0 24434-3 0 9998 2 27607 64.5540 54.9524 0062099 210.3375 149.4129 14.77514417112559 CO-55 1 27844U 03031E 23235.47814230 .00000395 00000-0 19528-3 0 9991 2 27844 98.6794 241.7542 0008606 293.9770 66.0506 14.22851820 45333 CO-57 1 27848U 03031J 23236.49745138 .00000342 00000-0 17345-3 0 9995 2 27848 98.6831 243.1480 0008685 307.9095 52.1297 14.22353708 45266 RS-22 1 27939U 03042A 23236.82363848 .00001476 00000-0 26262-3 0 9996 2 27939 98.2524 24.3418 0011254 281.0076 215.3044 14.68598623 64619 NOAA-18 1 28654U 05018A 23236.75405133 .00000227 00000-0 14566-3 0 9999 2 28654 98.9060 310.8032 0014364 181.8762 178.2359 14.12992771941256 CO-58 1 28895U 05043F 23236.60784413 .00001942 00000-0 36345-3 0 9993 2 28895 98.1622 8.1872 0015587 212.9883 147.0349 14.65918003951063 CO-65 1 32785U 08021C 23236.77940098 .00004320 00000-0 42226-3 0 9994 2 32785 97.7112 201.3105 0010511 229.0487 130.9823 14.92840769831127 AAUSAT2 1 32788U 08021F 23236.71683707 .00009893 00000-0 69402-3 0 9997 2 32788 97.5651 214.6929 0010193 115.1978 245.0306 15.05331372833512 DO-64 1 32789U 08021G 23235.03859947 .00089770 00000-0 17826-2 0 9997 2 32789 97.2977 256.5006 0005560 187.0590 173.0583 15.46651723837782 CO-66 1 32791U 08021J 23235.44279183 .00005870 00000-0 50723-3 0 9996 2 32791 97.6603 205.3232 0011794 178.4106 181.7156 14.97538351831806 RS-30 1 32953U 08025A 23236.77480249 .00000020 00000-0 70841-4 0 9990 2 32953 82.4991 274.4358 0020085 38.5377 321.7133 12.43128106692171 PRISM 1 33493U 09002B 23235.04136099 .00009956 00000-0 65035-3 0 9991 2 33493 98.2451 254.3143 0016235 174.8747 185.2649 15.07946901793826 NOAA-19 1 33591U 09005A 23236.73639694 .00000199 00000-0 13149-3 0 9998 2 33591 99.0944 283.7415 0014589 53.2817 306.9692 14.12809016749626 SRMSAT 1 37841U 11058D 23236.81528397 .00000484 00000-0 12080-3 0 9997 2 37841 19.9711 155.0819 0011869 66.4912 326.2865 14.10931638612732 HRBE 1 37855U 11061F 23234.97205520 .00022514 00000-0 64000-3 0 9998 2 37855 101.7097 234.5364 0110925 194.3099 165.4977 15.30227074647237 RS-40 1 38735U 12041C 23234.49900564 .00000028 00000-0 13343-3 0 9992 2 38735 82.4809 356.7397 0018132 150.1777 210.0339 12.42595294502055 ZACUBE-1 1 39417U 13066B 23236.61390939 .00004198 00000-0 47902-3 0 9993 2 39417 97.6903 195.9218 0056055 63.4120 297.2824 14.85477875527354 Delfi-N3xt 1 39428U 13066N 23235.36041638 .00006115 00000-0 86672-3 0 9993 2 39428 97.8296 157.8327 0108624 334.4460 25.1402 14.73358178522209 GOMX-1 1 39430U 13066Q 23236.76647755 .00002017 00000-0 35284-3 0 9993 2 39430 97.7702 123.8947 0146154 116.0463 245.5870 14.62102276519556 LO-74 1 39440U 13066AA 23235.31952746 .00002596 00000-0 33500-3 0 9994 2 39440 97.7753 181.9131 0075001 167.4865 192.8232 14.79874345525285 AO-73 1 39444U 13066AE 23234.88125534 .00005249 00000-0 57232-3 0 9992 2 39444 97.6767 196.8562 0054055 54.1642 306.4579 14.87293732526144 SPROUT 1 39770U 14029E 23235.30522488 .00023018 00000-0 16136-2 0 9992 2 39770 97.9934 4.7038 0005864 88.8853 271.3044 15.05193000502242 DTUSAT-2 1 40030U 14033W 23235.28499800 .00004114 00000-0 39395-3 0 9995 2 40030 97.9691 176.7179 0012457 72.4045 287.8533 14.93695221498525 EO-80 1 40032U 14033Y 23235.05948645 .00005519 00000-0 52632-3 0 9997 2 40032 97.9690 176.5060 0012633 74.6928 285.5686 14.93703732498478 HODOYOSHI-1 1 40299U 14070B 23236.77439614 .00011685 00000-0 34224-3 0 9992 2 40299 97.1882 297.7081 0010784 41.6526 318.5537 15.35314302489324 GRIFEX 1 40379U 15003D 23236.69522240 .00056022 00000-0 10110-2 0 9998 2 40379 99.0780 190.2844 0072804 36.7526 323.8678 15.46601583473950 XW-2C 1 40906U 15049H 23236.75240342 .00012533 00000-0 45774-3 0 9995 2 40906 97.4950 244.2001 0008757 280.4954 79.5299 15.28218970438860 XW-2D 1 40907U 15049J 23236.74100250 .00015160 00000-0 51491-3 0 9990 2 40907 97.4927 244.9258 0007643 269.7144 90.3220 15.30556690438963 LILACSAT-2 1 40908U 15049K 23236.81336442 .00006300 00000-0 29022-3 0 9994 2 40908 97.5275 239.7198 0012041 316.7463 43.2826 15.20587549438225 XW-2E 1 40909U 15049L 23236.77401960 .00036108 00000-0 81639-3 0 9999 2 40909 97.4512 252.0085 0006516 210.2114 149.8758 15.43059726439700 XW-2F 1 40910U 15049M 23236.73707096 .00033857 00000-0 78444-3 0 9994 2 40910 97.4606 251.2238 0007020 216.2322 143.8450 15.42337523439431 XW-2B 1 40911U 15049N 23236.74775095 .00014929 00000-0 51110-3 0 9990 2 40911 97.4905 245.3251 0007641 271.9906 88.0459 15.30301153438848 DCBB 1 40912U 15049P 23236.77419991 .00050573 00000-0 89139-3 0 9991 2 40912 97.4136 256.2012 0009000 169.5669 190.5771 15.50219988440216 IO-86 1 40931U 15052B 23235.26591296 .00001283 00000-0 87764-4 0 9995 2 40931 6.0007 327.6656 0012918 167.8581 192.1858 14.77323423427287 ChubuSat-2 1 41338U 16012B 23235.02838614 .00004367 00000-0 29771-3 0 9995 2 41338 31.0015 150.3052 0011684 125.5314 234.6413 15.04534241412456 ChubuSat-3 1 41339U 16012C 23236.82207748 .00003957 00000-0 27047-3 0 9991 2 41339 31.0079 136.0854 0011660 150.4854 209.6442 15.04354922412728 Horyu-4 1 41340U 16012D 23235.02593341 .00007662 00000-0 46789-3 0 9992 2 41340 31.0032 113.0995 0011000 196.1213 163.9075 15.08889407412824 e-st@r-II 1 41459U 16025D 23236.65974122 .00031332 00000-0 81119-3 0 9994 2 41459 98.1800 85.1139 0097467 219.2962 140.1178 15.34198054403382 AAUSAT4 1 41460U 16025E 23235.13323439 .00537061 10813-3 20664-2 0 9990 2 41460 98.1395 99.9427 0030292 166.8506 193.3559 15.86550090404260 LO-87 1 41557U 16033B 23236.75607196 .00122535 00000-0 93257-3 0 9999 2 41557 97.3873 347.9525 0006783 237.7115 122.3491 15.71872082404355 NuSat2 1 41558U 16033C 23236.63860940 .00180901 00000-0 98233-3 0 9995 2 41558 97.4166 356.7725 0007301 236.8047 123.2520 15.79473441404710 Lapan A3 1 41603U 16040E 23236.79948839 .00002728 00000-0 11914-3 0 9996 2 41603 97.1642 259.1988 0014399 76.8846 283.3997 15.22835686397930 Pratham 1 41783U 16059A 23236.50530895 .00000750 00000-0 15058-3 0 9999 2 41783 97.8658 264.5722 0031663 243.0138 116.7831 14.64086972368973 TY-1 1 41844U 16066D 23236.77212048 .00095693 00000-0 10113-2 0 9997 2 41844 97.3620 258.4502 0009589 148.1589 212.0251 15.63824368378369 CAS-2T 1 41847U 16066G 23235.09162955 .00001044 00000-0 16407-3 0 9995 2 41847 98.4997 303.3160 0358750 356.8638 3.0302 14.39953055356438 CAS-4B 1 42759U 17034B 23236.81707379 .00003288 00000-0 16699-3 0 9995 2 42759 43.0149 93.8231 0011033 193.9179 166.1367 15.18637287342066 CAS-4A 1 42761U 17034D 23236.76725857 .00008595 00000-0 41750-3 0 9995 2 42761 43.0141 92.6231 0011916 194.2533 165.7980 15.18649290342069 NIUSat 1 42766U 17036B 23234.74427709 .00032135 00000-0 72270-3 0 9991 2 42766 97.1520 264.7051 0008689 203.7917 156.2931 15.43222778342867 Aalto 1 1 42775U 17036L 23235.07245522 .00019864 00000-0 53004-3 0 9997 2 42775 97.1481 263.2853 0008448 209.0026 151.0751 15.38125953342796 URSA MAIOR 1 42776U 17036M 23235.04140528 .00024954 00000-0 61458-3 0 9993 2 42776 97.1490 264.8138 0008279 203.3849 156.7022 15.40537983342877 Max Valier Sat 1 42778U 17036P 23235.07055247 .00025510 00000-0 59377-3 0 9997 2 42778 97.1484 268.4665 0007154 198.2958 161.8033 15.42250357343027 Pegasus 1 42784U 17036V 23235.08357117 .00055076 00000-0 85762-3 0 9993 2 42784 97.1414 271.9476 0006729 183.8106 176.3098 15.53694157343347 SUCHAI 1 1 42788U 17036Z 23235.08876455 .00173878 00000-0 12631-2 0 9993 2 42788 97.1331 277.0659 0006923 179.6090 180.5181 15.72828138343754 SKCUBE 1 42789U 17036AA 23235.11187021 .00086480 00000-0 10037-2 0 9992 2 42789 97.1359 274.7219 0007085 177.8715 182.2575 15.61465312343525 VENTA 1 1 42791U 17036AC 23235.08923790 .00055738 00000-0 85758-3 0 9997 2 42791 97.1413 273.1815 0005890 179.6913 180.4346 15.54028689343403 Robusta 1B 1 42792U 17036AD 23234.10144066 .00138001 00000-0 12229-2 0 9998 2 42792 97.1334 275.4134 0006433 176.7777 183.3527 15.68140219343496 D-SAT 1 42794U 17036AF 23234.69012706 .00005343 00000-0 41653-3 0 9995 2 42794 97.4693 223.6916 0116997 78.3103 283.1220 14.96256528335906 TechnoSat 1 42829U 17042E 23236.78197392 .00001972 00000-0 18972-3 0 9990 2 42829 97.3879 70.1326 0013354 1.9886 358.1386 14.93994993332739 AO-91 1 43017U 17073E 23235.49354655 .00005713 00000-0 39618-3 0 9995 2 43017 97.6197 117.1909 0229457 206.4550 152.4806 14.87058208311188 PICSAT 1 43132U 18004X 23234.47734901 .00209252 00000-0 14522-2 0 9991 2 43132 97.3185 320.3188 0005802 229.3157 130.7604 15.73810806312913 AO-92 1 43137U 18004AC 23235.20519683 .00047067 00000-0 79426-3 0 9995 2 43137 97.3224 315.3606 0004395 241.0233 119.0579 15.51500842312679 TianYi 2 1 43155U 18008A 23236.80022424 .00020940 00000-0 75837-3 0 9991 2 43155 97.2924 287.7753 0013429 72.0638 288.2065 15.28326116309128 Zhou Enlai 1 43156U 18008B 23236.77742175 .00021369 00000-0 75442-3 0 9998 2 43156 97.2972 287.9865 0010988 74.2648 285.9803 15.29187762309059 TianYi 6 1 43158U 18008D 23235.36510198 .00017090 00000-0 68127-3 0 9990 2 43158 97.2986 283.1956 0011673 82.3450 277.9113 15.25206298308650 S-Net D 1 43186U 18014G 23236.59353708 .00003730 00000-0 29658-3 0 9998 2 43186 97.6170 139.0817 0013459 311.4454 48.5614 15.00968856303818 S-Net B 1 43187U 18014H 23234.59494340 .00004066 00000-0 32297-3 0 9991 2 43187 97.6172 137.0473 0014272 316.7137 43.2965 15.00950406303517 S-Net A 1 43188U 18014J 23234.19495439 .00003816 00000-0 30341-3 0 9998 2 43188 97.6178 136.7477 0014248 318.1719 41.8415 15.00949261303453 S-Net C 1 43189U 18014K 23234.59756916 .00004058 00000-0 32224-3 0 9994 2 43189 97.6181 137.0282 0015034 312.1955 47.7992 15.00947063302065 CubeBel-1 1 43666U 18083E 23236.80164169 .00037639 00000-0 85447-3 0 9995 2 43666 97.3760 269.0159 0007703 215.3560 144.7178 15.42920085267766 Changshagaoxin 1 43669U 18083H 23236.75288556 .00030259 00000-0 79818-3 0 9995 2 43669 97.3761 263.1795 0005687 212.8756 147.2136 15.38419607267477 Ten-Koh 1 43677U 18084G 23235.02509781 .00002752 00000-0 26743-3 0 9996 2 43677 98.0229 16.1887 0013693 289.7496 70.2245 14.93399269262035 PO-101 1 43678U 18084H 23236.72543232 .00001410 00000-0 13901-3 0 9996 2 43678 98.0324 22.1223 0008366 299.3131 60.7252 14.93668775262490 QO-100 1 43700U 18090A 23235.23586566 .00000153 00000-0 00000+0 0 9996 2 43700 0.0256 246.3232 0002322 294.1947 261.4681 1.00272019 17600 Reaktor Hello World 1 43743U 18096AA 23235.19723603 .00112093 00000-0 91923-3 0 9994 2 43743 97.3115 324.6088 0007783 272.0333 88.0038 15.70100756264646 MinXSS-2 1 43758U 18099A 23234.14265121 .00006238 00000-0 47301-3 0 9997 2 43758 97.5952 296.9381 0018155 260.3806 99.5368 15.02461845257649 AO-95 1 43770U 18099N 23235.12499115 .00005762 00000-0 45994-3 0 9999 2 43770 97.5744 294.8737 0013035 285.4748 74.5036 15.00595073257643 RANGE-B 1 43772U 18099Q 23234.11605127 .00007798 00000-0 59103-3 0 9999 2 43772 97.5700 296.8463 0006096 205.7641 154.3281 15.02514914257568 RANGE-A 1 43773U 18099R 23235.10006314 .00003672 00000-0 30758-3 0 9995 2 43773 97.5569 292.7095 0011306 245.9165 114.0875 14.98977179257589 MOVE-II 1 43780U 18099Y 23235.08239456 .00009107 00000-0 64353-3 0 9992 2 43780 97.5653 297.7375 0007066 285.0499 74.9945 15.05103320257793 SNUSat 2 1 43782U 18099AA 23235.16265763 .00004428 00000-0 35673-3 0 9997 2 43782 97.5627 295.4119 0012798 222.3801 137.6435 15.00368421257674 SnugLite 1 43784U 18099AC 23235.08620116 .00005028 00000-0 39828-3 0 9990 2 43784 97.5524 295.0068 0007061 228.1295 131.9327 15.00994495257706 ITASat 1 1 43786U 18099AE 23234.74377999 .00003667 00000-0 29795-3 0 9991 2 43786 97.5723 295.5349 0014575 265.7519 94.2040 15.00124370257621 EAGLET 1 1 43790U 18099AJ 23235.40727874 .00002776 00000-0 23016-3 0 9991 2 43790 97.5727 296.5895 0010264 263.9885 96.0168 14.99586721257455 ESEO 1 43792U 18099AL 23235.23462439 .00002055 00000-0 17906-3 0 9998 2 43792 97.5629 294.6839 0011450 256.5416 103.4530 14.97923840257429 CSIM 1 43793U 18099AM 23235.09238165 .00008773 00000-0 61287-3 0 9994 2 43793 97.5714 299.1576 0013971 255.8271 104.1403 15.05486081257646 Astrocast 0.1 1 43798U 18099AS 23235.10558990 .00008558 00000-0 62552-3 0 9999 2 43798 97.5808 298.4288 0010788 229.6960 130.3324 15.03828471257828 JO-97 1 43803U 18099AX 23235.10119773 .00005737 00000-0 44557-3 0 9999 2 43803 97.5706 296.0038 0011472 230.4164 129.6049 15.01659374257733 Suomi 100 1 43804U 18099AY 23236.78027789 .00005559 00000-0 43522-3 0 9993 2 43804 97.5741 297.3954 0017097 241.7933 118.1565 15.01307262257981 Al Farabi 2 1 43805U 18099AZ 23235.17444656 .00007285 00000-0 54140-3 0 9998 2 43805 97.5568 296.9457 0011472 227.3987 132.6271 15.03246327257815 CHOMPTT 1 43855U 18104G 23234.16739392 .00028147 00000-0 61473-3 0 9999 2 43855 85.0275 121.1564 0014371 73.9727 286.3108 15.43939526260749 ISAT 1 43879U 18111D 23235.14306403 .00007137 00000-0 52891-3 0 9995 2 43879 97.6370 138.6818 0012957 299.3201 60.6730 15.03347969252378 UWE-4 1 43880U 18111E 23235.21546791 .00006844 00000-0 51048-3 0 9998 2 43880 97.6272 139.3704 0017234 308.0076 51.9592 15.03067969252439 Sparrow 1 43881U 18111F 23235.20047281 .00006841 00000-0 50258-3 0 9997 2 43881 97.6429 140.1682 0010444 352.4278 7.6788 15.03717278252454 Lume 1 1 43908U 18111AJ 23234.23617683 .00043126 00000-0 72533-3 0 9995 2 43908 97.1266 116.7137 0008969 330.8532 29.2219 15.51578547259615 FO-99 1 43937U 19003F 23235.05396929 .00094241 00000-0 10390-2 0 9992 2 43937 97.0794 261.8419 0009031 48.7152 311.4884 15.62750901256452 AstroCast 0.2 1 44083U 19018F 23235.11662497 .00097610 00000-0 12135-2 0 9996 2 44083 97.2577 295.8552 0001584 313.4347 46.6778 15.59647252244810 AISTechSat 3 1 44103U 19018AB 23236.76389476 .00031592 00000-0 66595-3 0 9991 2 44103 97.2461 294.9074 0007818 36.6935 323.4848 15.45154311245085 AISat 1 1 44104U 19018AC 23236.77200422 .00021551 00000-0 37486-3 0 9997 2 44104 97.3728 329.5128 0037234 9.0940 351.0977 15.50014132246334 Prox-1 1 44339U 19036A 23234.40240166 .00006834 00000-0 13416-2 0 9997 2 44339 24.0020 343.3015 0008904 280.0708 79.8780 14.60299889221378 Move-IIb 1 44398U 19038N 23235.48139443 .00071445 00000-0 13074-2 0 9998 2 44398 97.6628 221.9089 0013957 67.6085 292.6642 15.48996684229055 SONATE 1 44400U 19038Q 23235.48935118 .00010821 00000-0 46406-3 0 9992 2 44400 97.6890 214.6061 0022298 79.4492 280.9255 15.22698175228471 BeeSat 9 1 44412U 19038AC 23236.48288547 .00028026 00000-0 86305-3 0 9991 2 44412 97.6784 219.5510 0017057 71.0477 289.2611 15.33460220228611 JAISAT-1 1 44419U 19038F 23235.50633328 .00026556 00000-0 81289-3 0 9993 2 44419 97.6774 219.6461 0016389 70.9854 289.3162 15.33673206228844 Taurus 1 1 44530U 19059C 23236.78660099 .00004450 00000-0 11427-2 0 9991 2 44530 98.5581 345.6874 0012383 237.6461 122.3535 14.50693498208580 Duchifat 3 1 44854U 19089C 23236.79121297 .00009460 00000-0 61662-3 0 9999 2 44854 36.9623 40.9248 0006951 162.6505 197.4477 15.07419540203188 OPS-SAT 1 44878U 19092F 23235.09027336 .00031872 00000-0 85572-3 0 9998 2 44878 97.4743 64.8583 0007252 250.1108 109.9355 15.37853951204065 TO-108 1 44881U 19093C 23236.73112696 .00001154 00000-0 14939-3 0 9998 2 44881 97.8584 314.0130 0013990 209.8734 150.1682 14.82695471198957 FloripaSat 1 1 44885U 19093G 23236.75783715 .00003994 00000-0 45863-3 0 9994 2 44885 97.8652 317.1766 0013014 210.0428 150.0042 14.86352165199131 RS-44 1 44909U 19096E 23234.20823319 .00000009 00000-0 -10444-4 0 9990 2 44909 82.5218 304.0826 0217930 32.8909 328.5538 12.79722048170655 BY70-2 1 45857U 20042B 23236.82782865 .00012584 00000-0 12066-2 0 9996 2 45857 97.9220 317.0871 0009910 142.1429 218.0489 14.93227907169775 UPMSat 2 1 46276U 20061E 23235.12246327 .00009290 00000-0 37892-3 0 9998 2 46276 97.3410 301.3433 0002865 99.5325 260.6237 15.24645565164484 AmicalSat 1 46287U 20061R 23235.11909297 .00013299 00000-0 58838-3 0 9998 2 46287 97.3947 300.4285 0002210 173.9369 186.1894 15.21796850163880 SALSAT 1 46495U 20068K 23235.07023848 .00005303 00000-0 34458-3 0 9999 2 46495 97.7734 183.8242 0013536 250.0963 109.8806 15.08390725159151 CAPE 3 1 47309U 21002A 23234.37980516 .00044908 00000-0 90707-3 0 9992 2 47309 60.6747 163.7625 0009757 324.9804 35.0651 15.46154177144508 AO-109 1 47311U 21002C 23235.08335153 .00032859 00000-0 74816-3 0 9990 2 47311 60.6790 160.6674 0007212 324.4422 35.6193 15.42765855144609 ExoCube 2 1 47319U 21002L 23235.05558633 .00029805 00000-0 70097-3 0 9999 2 47319 60.6771 163.2518 0008262 323.0794 36.9733 15.41828823144513 UVSQ-SAT 1 47438U 21006AB 23235.07171015 .00015994 00000-0 61370-3 0 9990 2 47438 97.3782 291.2929 0009286 195.8103 164.2847 15.26519905142844 YUSAT 1 1 47439U 21006AC 23234.12367670 .00023963 00000-0 83371-3 0 9990 2 47439 97.3785 291.3985 0008852 195.6621 164.4347 15.29663701142767 SOMP 2b 1 47445U 21006AJ 23234.57004007 .00017352 00000-0 68267-3 0 9990 2 47445 97.3747 289.9417 0008911 203.4082 156.6752 15.25671796142739 IDEASSat 1 47458U 21006AX 23235.10526713 .00014938 00000-0 60131-3 0 9996 2 47458 97.3846 291.2679 0008456 200.1663 159.9242 15.24942530142794 CubeSX-Sirius-HSE 1 47951U 21022V 23236.74340726 .00010195 00000-0 55067-3 0 9994 2 47951 97.4875 133.0132 0020392 97.3940 262.9610 15.14724137133401 CubeSX-HSE 1 47952U 21022W 23236.77967006 .00009592 00000-0 51726-3 0 9991 2 47952 97.4877 133.1024 0020427 96.6047 263.7511 15.14798665133411 KSU-Cubesat 1 47954U 21022Y 23236.52524919 .00011430 00000-0 59836-3 0 9992 2 47954 97.4882 133.3295 0019759 95.9725 264.3761 15.15813938133126 GRBAlpha 1 47959U 21022AD 23236.76254538 .00009148 00000-0 49245-3 0 9996 2 47959 97.4878 133.1801 0020254 96.9608 263.3928 15.14881107132237 Orbicraft-Zorkiy 1 47960U 21022AE 23236.75232560 .00010179 00000-0 53525-3 0 9990 2 47960 97.4909 133.7012 0019747 95.8415 264.5070 15.15688719132947 STECCO 1 47962U 21022AG 23236.79368472 .00020518 00000-0 87522-3 0 9990 2 47962 97.4879 136.7670 0014767 84.3859 275.9061 15.22851060132473 MO-110 1 47964U 21022AJ 23234.24238337 .00021285 00000-0 88446-3 0 9994 2 47964 97.4894 134.9216 0016689 87.6685 272.6463 15.23702471132120 FEES 1 48082U 21022AL 23235.17768937 .00043360 00000-0 13693-2 0 9992 2 48082 97.4874 137.8648 0012579 80.3760 279.8902 15.32625989132102 TUBIN 1 48900U 21059X 23236.75059495 .00008598 00000-0 39427-3 0 9996 2 48900 97.6081 10.8776 0009593 49.1641 311.0424 15.20659431119590 IT-SPINS 1 49017U 21013G 23234.20638881 .00038201 00000-0 74059-3 0 9990 2 49017 51.5892 113.8784 0006837 196.5262 163.5503 15.47282712119913 LEDSAT 1 49069U 21073D 23235.17089037 .00007924 00000-0 42121-3 0 9996 2 49069 97.4772 304.9498 0022150 246.3521 113.5386 15.15339108111046 CUTE 1 49263U 21088D 23235.11857186 .00009645 00000-0 59656-3 0 9993 2 49263 97.5389 299.8003 0017930 38.6051 321.6457 15.09904612104382 TeikyoSat 4 1 49396U 21102B 23234.73437971 .00001991 00000-0 15403-3 0 9998 2 49396 97.5096 284.6594 0013140 203.0653 156.9984 15.02528883 97768 Z-Sat 1 49399U 21102E 23236.76278926 .00004094 00000-0 28891-3 0 9991 2 49399 97.4788 287.7549 0021593 192.3022 167.7681 15.05307907 98202 KOSEN 1 1 49402U 21102H 23236.42159974 .00005032 00000-0 33648-3 0 9999 2 49402 97.4721 288.0592 0020742 180.5120 179.6090 15.07223087 98236 HO-113 1 50466U 21131B 23236.80000469 .00000622 00000-0 21576-3 0 9996 2 50466 98.5497 318.1296 0003138 302.4301 57.6583 14.39017401 87226 Tevel-3 1 50988U 22002E 23236.74686552 .00021257 00000-0 77979-3 0 9994 2 50988 97.4277 303.3603 0006309 2.1328 357.9937 15.27971398 89226 Tevel-8 1 50989U 22002F 23236.76872846 .00020154 00000-0 74121-3 0 9991 2 50989 97.4294 303.4488 0006333 1.7862 358.3399 15.27898897 89222 Tevel-5 1 50998U 22002Q 23236.65183989 .00021750 00000-0 77481-3 0 9997 2 50998 97.4272 303.7361 0007183 354.7032 5.4130 15.28924584 89244 Tevel-6 1 50999U 22002R 23236.65039299 .00021788 00000-0 77621-3 0 9999 2 50999 97.4270 303.7278 0007183 354.3503 5.7654 15.28922431 89242 Tevel-1 1 51013U 22002AF 23236.75892591 .00021070 00000-0 77427-3 0 9998 2 51013 97.4269 303.3035 0006211 2.0676 358.0587 15.27916701 89223 Grizu-263a 1 51025U 22002AT 23235.43398403 .00205934 00000-0 22361-2 0 9997 2 51025 97.4371 310.4702 0005208 283.8300 76.2379 15.62808254 89497 NO-116 1 51031U 22002AZ 23234.98900996 .00045630 00000-0 12105-2 0 9999 2 51031 97.4384 305.5554 0006740 349.9108 10.2000 15.38148358 89157 IRIS-A 1 51044U 22002BN 23235.08802820 .00009427 00000-0 43103-3 0 9999 2 51044 97.4292 299.5634 0007821 18.1038 342.0474 15.20734531 88827 Tevel-7 1 51062U 22002CG 23236.76873268 .00020218 00000-0 74297-3 0 9998 2 51062 97.4289 303.4202 0006274 1.2285 358.8968 15.27924377 89221 Tevel-4 1 51063U 22002CH 23236.77751025 .00020987 00000-0 77264-3 0 9996 2 51063 97.4288 303.4049 0006283 1.3820 358.7435 15.27856760 89224 Tevel-2 1 51069U 22002CP 23236.74843969 .00021558 00000-0 79059-3 0 9997 2 51069 97.4274 303.3313 0006249 2.0683 358.0581 15.27978759 89223 DELFI-PQ 1 51074U 22002CU 23235.16336800 .00053491 00000-0 12257-2 0 9996 2 51074 97.4523 308.6319 0006589 16.8506 343.2959 15.42568331 89306 SO-115 1 51080U 22002DA 23234.16216380 .00026993 00000-0 87052-3 0 9995 2 51080 97.4552 305.1893 0009432 34.0750 326.1096 15.32090435 88986 SO-114 1 51081U 22002DB 23233.42323189 .00028925 00000-0 92684-3 0 9994 2 51081 97.4539 304.4291 0009637 35.8893 324.2994 15.32280759 88874 OreSat0 1 52017U 22026K 23235.51292859 .00016308 00000-0 60743-3 0 9994 2 52017 97.5106 238.2244 0020508 199.6147 160.4305 15.27344806 79816 Planetum 1 1 52738U 22057G 23235.11168394 .00015134 00000-0 65995-3 0 9990 2 52738 97.5433 351.1566 0007710 114.9455 245.2583 15.22241865 68839 Foresail-1 1 52766U 22057AL 23236.78504163 .00010613 00000-0 48296-3 0 9995 2 52766 97.5554 353.7183 0012908 92.3541 267.9173 15.20822831 69100 SNUGLITE 2 1 52899U 22065F 23236.64414028 .00001303 00000-0 28400-3 0 9997 2 52899 98.0784 19.6234 0008026 12.0445 348.0946 14.59493865 60844 CTIM 1 52950U 22074G 23236.32941849 .00060111 00000-0 99917-3 0 9999 2 52950 44.9985 336.3541 0014397 310.6715 49.2925 15.51184719 64153 IO-117 1 53106U 22080B 23234.35602908 -.00000003 00000-0 00000+0 0 9997 2 53106 70.1544 296.7314 0008666 173.7871 186.2897 6.42556953 26004 AstroBioCubeSat 1 53107U 22080C 23025.30817895 -.00000003 00000-0 00000-0 0 9995 2 53107 70.1710 9.4734 0013545 210.3158 149.6718 6.42110537 12478 SelfieSat 1 53951U 22057BC 23236.63442723 .00019506 00000-0 79300-3 0 9999 2 53951 97.5477 353.5672 0009071 103.4073 256.8176 15.24549209 69102 FO-118 1 54684U 22167C 23236.77524596 .00012930 00000-0 68026-3 0 9996 2 54684 97.5706 13.9928 0014050 98.8149 261.4674 15.15696362 39066 SSS-2B 1 56184U 23054G 23236.74120250 .00011904 00000-0 48611-3 0 9993 2 56184 97.4004 130.8110 0011773 145.3704 214.8302 15.24481746 20618 CIRBE 1 56188U 23054L 23235.18721219 .00016415 00000-0 65142-3 0 9996 2 56188 97.3960 129.2949 0010389 142.6208 217.5754 15.25382613 20384 INSPIRE-Sat 7 1 56211U 23054AK 23234.26329616 .00018447 00000-0 69141-3 0 9996 2 56211 97.3981 128.7424 0015663 132.9588 227.2967 15.27192748 20260 RoseyCubesat 1 1 56212U 23054AL 23234.50486459 .00020847 00000-0 77116-3 0 9991 2 56212 97.3988 129.0399 0016082 131.7441 228.5176 15.27595110 20305 ARKSAT 1 1 56311U 98067VC 23236.51444521 .00103401 00000-0 90686-3 0 9999 2 56311 51.6364 342.4021 0008963 335.6738 24.3835 15.67984708 19044 AuroraSat 1 56312U 98067VD 23236.72928554 .00152650 00000-0 11030-2 0 9991 2 56312 51.6338 340.0701 0010348 335.1094 24.9404 15.72435538 19120 Ex-Alta 2 1 56313U 98067VE 23235.49164071 .00099015 00000-0 87032-3 0 9992 2 56313 51.6338 347.5570 0008784 330.4529 29.5970 15.67951055 18904 LightCube 1 56314U 98067VF 23235.48371647 .00133527 00000-0 10273-2 0 9990 2 56314 51.6340 346.7523 0010461 323.8334 36.1955 15.71014574 18944 NEUDOSE 1 56315U 98067VG 23235.33791503 .00065493 00000-0 71625-3 0 9997 2 56315 51.6357 350.2914 0008402 323.0886 36.9529 15.62647697 18834 YukonSat 1 56316U 98067VH 23235.50924348 .00079968 00000-0 77762-3 0 9992 2 56316 51.6355 348.4329 0008994 322.5235 37.5132 15.65536500 18896 URESAT-1 1 56992U 23084BU 23234.26477396 .00013283 00000-0 74804-3 0 9999 2 56992 97.5131 349.7246 0017832 353.4939 6.6058 15.13213961 10638 MRC-100 1 56993U 23084BV 23235.12420011 .00012787 00000-0 71885-3 0 9992 2 56993 97.5119 350.5790 0017489 350.8923 9.1988 15.13288868 10774 UmKA 1 (RS40S) 1 57172U 23091G 23236.77748444 .00003546 00000-0 26171-3 0 9996 2 57172 97.6583 286.9186 0019181 55.8079 304.4962 15.03768138 8745 CubeBel-2 (EU11S) 1 57175U 23091K 23236.80049761 .00005643 00000-0 41930-3 0 9999 2 57175 97.6605 286.8844 0018701 68.9990 291.3234 15.03267718 8741 /EX
